AirNav   Pilot Hours Calculator
 
 1353 users online  

7N4 Honey Acres Airport
Clinton, Michigan, USA

GOING TO CLINTON?


FAA INFORMATION EFFECTIVE 30 JANUARY 2020

Location

FAA Identifier: 7N4
Lat/Long: 42-04-39.9000N 083-59-09.6850W
42-04.665000N 083-59.161417W
42.0777500,-83.9860236
(estimated)
Elevation: 825 ft. / 251 m (estimated)
Variation: 04W (1985)
From city: 1 mile W of CLINTON, MI
Time zone: UTC -5 (UTC -4 during Daylight Saving Time)
Zip code: 49236

Airport Operations

Airport use: Open to the public
Activation date: 07/1990
Control tower: no
ARTCC: CLEVELAND CENTER
FSS: LANSING FLIGHT SERVICE STATION
NOTAMs facility: LAN (NOTAM-D service available)
Attendance: IREG
Wind indicator: yes
Segmented circle: no

Airport Communications

CTAF: 122.9
WX ASOS at ADG (13 nm S): 118.375 (517-265-9089)
WX ASOS at ARB (14 nm NE): 134.55 (734-668-7173)

Nearby radio navigation aids

VOR radial/distance  VOR name  Freq  Var
CRLr277/23.6CARLETON VOR/DME115.7003W
JXNr122/23.7JACKSON VOR/DME109.6005W
SVMr224/26.4SALEM VORTAC114.3003W
DXOr260/28.7DETROIT VOR/DME113.4006W
LFDr093/34.7LITCHFIELD VOR/DME111.2005W

 
NDB name  Hdg/Dist  Freq  Var  ID
TECUMSEH307/5.223906WTCU - -.-. ..-
ADRIAN024/13.127806WADG .- -.. --.
GROSSE ILE275/37.141907WRYS .-. -.-- ...

Airport Services

Parking: tiedowns

Runway Information

Runway 18/36

Dimensions: 3800 x 90 ft. / 1158 x 27 m
Surface: turf, in good condition
Runway edge markings: RWY 36 THR & DSPLCD THR MKD WITH 3 FT YELLOW CONES.
RUNWAY 18  RUNWAY 36
Latitude: 42-04.977667N42-04.352333N
Longitude: 083-59.176000W083-59.146833W
Elevation: 825.0 ft.817.0 ft.
Traffic pattern: leftleft
Runway heading: 182 magnetic, 178 true002 magnetic, 358 true
Displaced threshold: 600 ft.600 ft.
Obstructions: 40 ft. trees, 106 ft. left of centerline32 ft. bldg, lighted, 129 ft. from runway, 55 ft. left of centerline, 4:1 slope to clear
APCH RATIO 8:1 AT DSPLCD THR OVER 80 FT TREE, 714 FT DSTC, 125 L.

Airport Ownership and Management from official FAA records

Ownership: Privately-owned
Owner: RAYMOND L. KUSSMAUL
12447 MATTHEWS HWY
CLINTON, MI 49236
Phone 517-902-3270
Manager: RAYMOND L. KUSSMAUL
12447 MATTHEWS HWY
CLINTON, MI 49236
Phone 517-902-3270

Airport Operational Statistics

Aircraft based on the field: 4
Single engine airplanes: 4
    
Aircraft operations: avg 38/month *
50% transient general aviation
50% local general aviation
* for 12-month period ending 31 December 2017

Additional Remarks

BUILDING & HNGR IN PRIMARY SFC.
RWY 36, +18 FT PLINE 430 FT FROM THR MKD WITH ORANGE BALLS.
RWY SOFT DURG SPRING THAW AND AFT HEAVY RAINS.
FOR CD CTC DETROIT APCH AT 800-499-8181.
DEER AND BIRDS ON & INVOF RWY.

Instrument Procedures

There are no published instrument procedures at 7N4.

Some nearby airports with instrument procedures:

KADG - Lenawee County Airport (13 nm S)
3NP - Napoleon Airport (13 nm NW)
KARB - Ann Arbor Municipal Airport (14 nm NE)
KYIP - Willow Run Airport (22 nm NE)
KJXN - Jackson County Airport-Reynolds Field (24 nm NW)
 
Loc | Ops | Rwys | IFR | FBO | Links
Com | Nav | Svcs | Stats | Notes
Area around 7N4 (Honey Acres Airport)
 
Road maps at: MapQuest Bing Google
 
Aerial photo
WARNING: Photo may not be current or correct
Aerial photo of 7N4 (Honey Acres Airport)
Credit: M. Coleman - LocalHangar.com

Do you have a better or more recent aerial photo of Honey Acres Airport that you would like to share? If so, please send us your photo.

 
Sectional chart

 
Airport distance calculator
Flying to Honey Acres Airport? Find the distance to fly.

From to 7N4

Sunrise and sunset
Times for 17-Feb-2020
 Local
(UTC-5)
 Zulu
(UTC)
Morning civil twilight07:0212:02
Sunrise07:3012:30
Sunset18:1023:10
Evening civil twilight18:3823:38

Current date and time
Zulu (UTC)  17-Feb-2020 21:17:14
Local (UTC-5)  17-Feb-2020 16:17:14
 
METAR
KADG 
13nm S 
172053Z AUTO 12009KT 10SM OVC075 00/M03 A3013 RMK AO2 SLP215 T00001033 56020
KARB 
14nm NE 
734-668-7173
172053Z 10006KT 10SM BKN060 BKN070 OVC090 01/M04 A3013 RMK AO2 SLP213 T00111039 56023
KYIP 
22nm NE 
172053Z 11010KT 10SM BKN065 OVC085 02/M04 A3016 RMK AO2 SLP219 T00171039 56020 $
KJXN 
24nm NW 
172056Z 09011KT 10SM OVC075 01/M05 A3009 RMK AO2 SLP204 T00061050 56019
KDUH 
26nm SE 
172055Z AUTO 08010G15KT 050V110 10SM OVC065 00/M02 A3014 RMK AO2MK AO2 RMK AO2
TAF
KYIP 
22nm NE 
171120Z 1712/1812 06004KT P6SM BKN100 FM171500 11007KT P6SM FEW020 BKN150 FM172200 13012KT P6SM OVC070 FM180000 13012KT 4SM -RASN BR OVC015 FM180300 14011KT 1 1/2SM -RA BR OVC008 FM180800 20010KT 4SM BR OVC010
KJXN 
24nm NW 
171740Z 1718/1818 11010G20KT P6SM OVC080 FM172200 11010G20KT 2SM -RASN OVC025 FM180000 11010G20KT 3/4SM -SN VV007 FM180400 13010G20KT 2SM -RA BR OVC009 FM180900 22010KT 3/4SM -DZ BR OVC004 FM181300 25010KT 6SM BR OVC009 FM181600 29013G21KT P6SM OVC015
NOTAMs
Click for the latest NOTAMs
NOTAMs are issued by the DoD/FAA and will open in a separate window not controlled by AirNav.

 

 
 

Where to Eat: Catering, Restaurants, Food shops

  
 Business Name 
 
 Contact 
 
 Services / Description 
 
Distance
 
Comments
  
Race Track Inn 517-456-7768
no information available

If you are affiliated with Race Track Inn and would like to show here your services, contact info, web link, logo, and more, click here
0.2 miles  
   write
McDonald's 517-456-8700
no information available

If you are affiliated with McDonald's and would like to show here your services, contact info, web link, logo, and more, click here
0.4 miles  
   write
 

Would you like to see your business listed on this page?

 If your business provides an interesting product or service to pilots, flight crews, aircraft, or users of the Honey Acres Airport, you should consider listing it here.  To start the listing process, click on the button below
 
Add a business
 

Other Pages about Honey Acres Airport

Page from the Michigan Airport Directory (PDF)
 
Update a link
 
Copyright © AirNav, LLC. All rights reserved. Privacy Policy  Contact